[[{"header":{"parameterUnit":"m.s-1","parameterCategory":1,"la1":30.2991,"la2":30.254,"lo1":-89.0895,"lo2":-89.0444,"dy":0.0017,"dx":0.0017,"nx":28,"ny":28,"refTime":"2023-08-10T03:00:00:Z","depth":0,"parameterNumber":2,"parameterNumberName":"U-component_of_WINDS"},"data":[0,0,0,0,0,0,0,0,0,0,0,0,0,0,0,0,0,0,0,0,0,0,0,0,0,0,0,0,0,0,0,0,0,0,0,0,0,0,0,0,0,0,0,0,0,0,0,0,0,0,0,0,0,0,0,0,0,0,1.442,1.4421,0,1.4488,1.4489,1.449,1.447,1.4469,1.4468,1.4466,1.4536,1.4539,1.4542,0,0,0,0,0,0,0,0,0,0,0,0,0,1.4272,1.4275,1.442,1.4421,1.4422,1.4488,1.4489,1.449,1.4471,1.4469,1.4467,1.4466,1.4535,1.4539,1.4543,0,0,0,0,0,0,0,0,0,0,0,0,0,1.4338,1.4276,1.442,1.442,1.4421,1.4488,1.4489,1.449,1.4471,1.4469,1.4467,1.4465,1.4534,1.4538,1.4543,1.4615,0,0,1.4558,1.456,0,0,0,0,0,0,0,0,1.4334,1.4344,1.4419,1.442,1.4421,1.4469,1.4463,1.4532,1.4471,1.4452,1.4466,1.4464,1.4515,1.4521,1.4539,1.4618,1.4621,1.4558,1.4561,1.4563,1.4564,0,0,0,0,0,0,0,1.433,1.4341,1.4447,1.442,1.4421,1.4417,1.4424,1.4476,1.4495,1.4453,1.4452,1.4461,1.4515,1.4534,1.454,1.4622,1.4558,1.4562,1.4565,1.4567,1.4763,1.4765,0,0,0,0,0,0,1.4325,1.4337,1.4445,1.4449,1.4372,1.4421,1.4429,1.4455,1.4494,1.4498,1.4462,1.4459,1.4527,1.4535,1.4543,1.4629,1.4563,1.4567,1.457,1.4761,1.4764,1.4766,0,0,0,0,0,0,1.4322,1.4334,1.4442,1.4393,1.4406,1.4426,1.4456,1.4458,1.4477,1.4501,1.4504,1.4478,1.4526,1.4536,1.4597,1.4631,1.4569,1.4574,1.4758,1.4762,1.4765,1.4802,0,0,0,0,0,0,1.4317,1.4333,1.4361,1.4393,1.4409,1.4495,1.4458,1.4461,1.4485,1.4482,1.4516,1.452,1.4525,1.459,1.4602,1.4636,1.4578,1.4755,1.476,1.4764,1.4798,1.4806,1.4813,0,0,0,0,0,1.4312,1.4368,1.4362,1.4375,1.4443,1.4497,1.4506,1.451,1.4488,1.4515,1.4531,1.4519,1.4626,1.4596,1.4609,1.4646,1.4753,1.4758,1.4764,1.4794,1.4804,1.4813,0,0,0,0,0,0,1.4338,1.4372,1.4366,1.4434,1.4463,1.4494,1.4528,1.4521,1.4557,1.4552,1.4557,1.4565,1.4627,1.4643,1.4609,1.4718,1.4686,1.4694,1.4705,1.4715,1.4723,1.4717,1.4581,0,0,0,0,0,1.4352,1.4393,1.4421,1.4478,1.4493,1.4508,1.4532,1.4533,1.4563,1.4575,1.4595,1.4624,1.4664,1.4691,1.4729,1.48,1.4807,1.4832,1.484,1.4846,1.4853,1.4892,1.4903,1.4784,1.4784,1.4784,0,0,1.4381,1.4405,1.443,1.4484,1.4506,1.4549,1.4519,1.4565,1.4596,1.4582,1.464,1.4656,1.4689,1.4756,1.4786,1.4771,1.4888,1.4853,1.4858,1.4861,1.4899,1.491,1.492,1.4787,1.4787,1.4786,0,0,1.4454,1.4477,1.4527,1.4551,1.4585,1.4595,1.4607,1.4639,1.4649,1.4708,1.4699,1.4736,1.4806,1.483,1.4851,1.4935,1.4925,1.4948,1.4989,1.5027,1.5036,1.5044,1.5074,1.5085,1.4954,1.4955,1.4955,0,1.4486,1.4549,1.4554,1.4601,1.4625,1.4615,1.4666,1.4689,1.4734,1.4751,1.4733,1.482,1.4842,1.4913,1.4934,1.4952,1.4966,1.4943,1.5034,1.5043,1.5051,1.5079,1.509,1.4957,1.4957,1.4956,1.4956,0,1.4586,1.463,1.4667,1.4711,1.4739,1.4788,1.48,1.4829,1.4828,1.484,1.49,1.4926,1.497,1.4987,1.4987,1.5059,1.5049,1.5033,1.5001,1.5064,1.5091,1.5102,1.496,1.496,1.4959,1.4958,0,0,1.4676,1.4724,1.4737,1.4757,1.4795,1.4829,1.4878,1.4921,1.4945,1.4977,1.5018,1.5077,1.5063,1.5087,1.5089,1.5123,1.5188,1.5103,1.5104,1.5117,1.5269,1.528,1.5293,1.5182,1.5184,1.5186,1.5266,0,1.4753,1.4838,1.4845,1.4922,1.4963,1.4955,1.4997,1.5025,1.5038,1.5075,1.5089,1.5131,1.5109,1.5124,1.5157,1.5173,1.5218,1.5167,1.522,1.5222,1.5211,1.5307,1.5319,1.5393,1.5277,1.5279,1.528,0,1.4853,1.4888,1.497,1.5003,1.502,1.5058,1.5098,1.5134,1.5166,1.5173,1.52,1.5198,1.5249,1.5216,1.5285,1.525,1.5273,1.5284,1.5287,1.5291,1.5254,1.5313,1.5417,1.5428,1.5297,1.5295,1.5294,0,1.491,1.4978,1.5036,1.5054,1.5094,1.5121,1.5138,1.5168,1.5194,1.5229,1.5246,1.5286,1.5308,1.534,1.5349,1.5324,1.5418,1.5386,1.5425,1.5425,1.5444,1.5443,1.5553,1.546,1.546,1.546,1.5459,0,1.4994,1.5044,1.5062,1.5098,1.5154,1.5161,1.5217,1.5233,1.526,1.5298,1.5294,1.533,1.534,1.5378,1.5386,1.5442,1.5452,1.5459,1.5461,1.5459,1.5458,1.5473,1.5468,1.5463,1.5462,1.5461,1.5461,0,1.5067,1.5081,1.5144,1.5177,1.5186,1.5226,1.5254,1.5289,1.5301,1.535,1.5362,1.5382,1.5427,1.544,1.5493,1.5498,1.5564,1.5561,1.5553,1.5553,1.5591,1.5587,1.5714,1.5731,1.5628,1.5629,1.5629,0,1.5119,1.5158,1.5195,1.5221,1.524,1.5282,1.5308,1.5317,1.5345,1.5385,1.5414,1.5458,1.5494,1.5566,1.5585,1.5627,1.5624,1.5665,1.563,1.5628,1.5624,1.5621,1.5625,1.5672,1.5673,1.5674,1.5674,0,1.521,1.5216,1.5254,1.5295,1.5327,1.536,1.5391,1.5412,1.5426,1.5457,1.5503,1.5531,1.5587,1.5631,1.5672,1.5691,1.5685,1.5686,1.5697,1.5695,1.5689,1.5693,1.5571,1.5682,1.5682,1.5681,1.5681,1.568,1.5274,1.5308,1.534,1.5383,1.5408,1.5438,1.5472,1.5489,1.5528,1.5573,1.5577,1.5627,1.5658,1.5714,1.5735,1.5774,1.5762,1.5778,1.5782,1.5785,1.5788,1.5684,1.5782,1.5781,1.5781,1.5781,1.5781,0,1.5364,1.5385,1.5425,1.5469,1.5503,1.5496,1.553,1.5559,1.5603,1.5633,1.5669,1.5722,1.5765,1.5789,1.5831,1.5858,1.5857,1.5869,1.5867,1.5871,1.5797,1.5783,1.587,1.587,1.587,1.587,1.587,1.587,1.5415,1.5472,1.5482,1.5552,1.5572,1.5621,1.5641,1.5669,1.5693,1.5753,1.5789,1.5804,1.5831,1.5876,1.5916,1.5921,1.5937,1.5951,1.5955,1.5885,1.5876,1.5868,1.5854,1.5955,1.5955,1.6026,1.6026,1.6027]},{"header":{"parameterUnit":"m.s-1","parameterCategory":1,"la1":30.2991,"la2":30.254,"lo1":-89.0895,"lo2":-89.0444,"dy":0.0017,"dx":0.0017,"nx":28,"ny":28,"refTime":"2023-08-10T03:00:00:Z","depth":0,"parameterNumber":3,"parameterNumberName":"V-component_of_WINDS"},"data":[0,0,0,0,0,0,0,0,0,0,0,0,0,0,0,0,0,0,0,0,0,0,0,0,0,0,0,0,0,0,0,0,0,0,0,0,0,0,0,0,0,0,0,0,0,0,0,0,0,0,0,0,0,0,0,0,0,0,5.5457,5.5458,0,5.5556,5.5557,5.5558,5.5538,5.5536,5.5534,5.5532,5.5626,5.563,5.5635,0,0,0,0,0,0,0,0,0,0,0,0,0,5.5242,5.5246,5.5457,5.5458,5.546,5.5556,5.5557,5.5559,5.5538,5.5536,5.5533,5.5531,5.5625,5.563,5.5635,0,0,0,0,0,0,0,0,0,0,0,0,0,5.5338,5.5248,5.5457,5.5461,5.5462,5.5556,5.5557,5.5559,5.5538,5.5536,5.5533,5.553,5.5623,5.5629,5.5636,5.5729,0,0,5.5655,5.5658,0,0,0,0,0,0,0,0,5.5332,5.5346,5.5459,5.5461,5.5463,5.5532,5.5516,5.5616,5.5539,5.5509,5.5532,5.5529,5.5597,5.5605,5.5629,5.5733,5.5737,5.5655,5.5659,5.5662,5.5664,0,0,0,0,0,0,0,5.5326,5.5341,5.5496,5.5461,5.5463,5.5455,5.5466,5.5535,5.5567,5.5512,5.551,5.5523,5.5597,5.5623,5.5631,5.5739,5.5655,5.5661,5.5665,5.5667,5.5923,5.5926,0,0,0,0,0,0,5.5319,5.5336,5.5493,5.5499,5.539,5.5462,5.5473,5.5512,5.5566,5.5572,5.5525,5.5522,5.5614,5.5624,5.5635,5.5747,5.5662,5.5668,5.5671,5.592,5.5924,5.5927,0,0,0,0,0,0,5.5314,5.5333,5.5489,5.5417,5.5437,5.5468,5.5512,5.5516,5.5542,5.5576,5.5581,5.5547,5.5612,5.5626,5.5706,5.575,5.5671,5.5676,5.5917,5.5921,5.5926,5.5973,0,0,0,0,0,0,5.5308,5.5331,5.5369,5.5418,5.5441,5.5561,5.5515,5.552,5.5554,5.555,5.5598,5.5603,5.5611,5.5697,5.5712,5.5757,5.5681,5.5913,5.5919,5.5924,5.5968,5.5979,5.5988,0,0,0,0,0,5.5301,5.5377,5.5371,5.539,5.5489,5.5564,5.5576,5.5586,5.5558,5.5594,5.5616,5.5601,5.5743,5.5705,5.5722,5.577,5.591,5.5917,5.5924,5.5963,5.5977,5.5988,0,0,0,0,0,0,5.5329,5.5383,5.5377,5.5473,5.5514,5.556,5.5607,5.56,5.5648,5.5643,5.565,5.5661,5.5743,5.5764,5.5721,5.5863,5.5822,5.5833,5.5846,5.5859,5.5869,5.5862,5.5686,0,0,0,0,0,5.5347,5.5406,5.5449,5.5529,5.555,5.5575,5.5608,5.5613,5.5655,5.5671,5.5699,5.5738,5.5792,5.5826,5.5877,5.5971,5.598,5.6012,5.6022,5.603,5.6039,5.609,5.6104,5.595,5.595,5.5949,0,0,5.5383,5.542,5.5457,5.5536,5.5568,5.5627,5.559,5.5654,5.5697,5.568,5.5759,5.578,5.5824,5.5912,5.5951,5.5932,5.6084,5.6039,5.6045,5.605,5.6098,5.6113,5.6126,5.5954,5.5953,5.5953,0,0,5.548,5.5515,5.5585,5.5619,5.567,5.5686,5.5703,5.5751,5.5765,5.5844,5.5833,5.5883,5.5975,5.6007,5.6035,5.6145,5.6132,5.616,5.6214,5.6263,5.6275,5.6286,5.6324,5.6338,5.6169,5.6169,5.617,0,5.5519,5.561,5.5621,5.5687,5.5721,5.5712,5.5782,5.5813,5.5877,5.5899,5.5877,5.5993,5.6022,5.6116,5.6143,5.6166,5.6184,5.6155,5.6273,5.6284,5.6294,5.6331,5.6345,5.6173,5.6172,5.6172,5.6172,0,5.5654,5.5717,5.5767,5.5832,5.5872,5.5939,5.5959,5.5997,5.5998,5.6016,5.6096,5.613,5.6188,5.6211,5.6211,5.6305,5.6292,5.6271,5.623,5.6312,5.6346,5.6361,5.6177,5.6176,5.6175,5.6174,0,0,5.5772,5.5843,5.5862,5.5891,5.5946,5.5994,5.6059,5.6119,5.6151,5.6195,5.6249,5.6328,5.6309,5.6341,5.6345,5.6388,5.6472,5.6362,5.6363,5.6381,5.6577,5.6592,5.6609,5.6464,5.6467,5.6469,5.6573,0,5.5874,5.5994,5.6006,5.6112,5.6169,5.6161,5.6218,5.6257,5.6275,5.6324,5.6343,5.6399,5.637,5.639,5.6432,5.6453,5.6511,5.6445,5.6513,5.6515,5.6503,5.6627,5.6643,5.674,5.6587,5.6589,5.6591,0,5.6009,5.606,5.6173,5.622,5.6245,5.6296,5.6351,5.64,5.6442,5.6452,5.6489,5.6487,5.6552,5.6509,5.6599,5.6554,5.6582,5.6596,5.66,5.6607,5.6558,5.6637,5.6771,5.6786,5.6612,5.6611,5.6609,0,5.6084,5.618,5.626,5.6285,5.6343,5.6379,5.6404,5.6445,5.6479,5.6526,5.6549,5.6602,5.6631,5.6671,5.6682,5.665,5.6771,5.6729,5.678,5.678,5.6806,5.6804,5.6947,5.6824,5.6824,5.6823,5.6823,0,5.6196,5.6265,5.6294,5.6343,5.642,5.6432,5.6507,5.6529,5.6566,5.6617,5.6612,5.666,5.6672,5.6721,5.673,5.6803,5.6816,5.6824,5.6826,5.6825,5.6824,5.6843,5.6837,5.6827,5.6826,5.6826,5.6825,0,5.6293,5.6315,5.6402,5.645,5.6463,5.6517,5.6557,5.6603,5.6621,5.6686,5.6702,5.6728,5.6786,5.6802,5.6871,5.6876,5.6962,5.6957,5.6948,5.6948,5.6998,5.6993,5.7159,5.7181,5.7043,5.7045,5.7046,0,5.6363,5.6417,5.6471,5.6507,5.6534,5.6591,5.6627,5.6641,5.6678,5.6731,5.6771,5.6828,5.6876,5.6968,5.6992,5.7044,5.7041,5.7095,5.7048,5.7046,5.7041,5.7038,5.7043,5.7104,5.7105,5.7106,5.7107,0,5.6486,5.6495,5.6549,5.6607,5.665,5.6696,5.6739,5.6767,5.6787,5.6828,5.6889,5.6926,5.6997,5.7054,5.7107,5.713,5.7122,5.7122,5.7136,5.7136,5.7129,5.7133,5.6973,5.7118,5.7117,5.7116,5.7115,5.7115,5.6572,5.6619,5.6665,5.6725,5.6759,5.68,5.6846,5.687,5.6922,5.6983,5.6987,5.7053,5.7093,5.7164,5.719,5.724,5.7223,5.7244,5.725,5.7255,5.7259,5.7121,5.7249,5.7249,5.7249,5.7248,5.7248,0,5.6694,5.6724,5.6779,5.6841,5.6888,5.6878,5.6926,5.6964,5.7023,5.7063,5.711,5.718,5.7235,5.7264,5.7318,5.7352,5.735,5.7366,5.7364,5.7369,5.7271,5.7253,5.7367,5.7367,5.7367,5.7367,5.7367,5.7367,5.6764,5.6843,5.6857,5.6953,5.6981,5.7048,5.7075,5.7112,5.7144,5.7223,5.727,5.7289,5.7324,5.7381,5.743,5.7437,5.7457,5.7476,5.748,5.7388,5.7376,5.7364,5.7348,5.748,5.748,5.7574,5.7575,5.7576]}]]